When you browse on this site, cookies collect data to enhance your experience and personalize the content and advertising you see.
Visit our Privacy Policy to learn more. By continuing to use the site, you agree to this use of cookies and data.
  • In Hungary
  • List of Countries
  • For 7 days
  • Water Temperature
  • Satellite Maps
  • Weather Map
  • News
  • Weather Widgets
  • user-avatar
    Login

    Hourly Weather Kwara

    Today, 22 February, Friday

    Time Temperature Precipitation Wind Pressure Humidity
    00:00 +35°C° 0 mm 1 mps 739 mmHg 18%
    01:00 +34°C° 0 mm 2 mps 739 mmHg 33%
    02:00 +33°C° 0 mm 3 mps 738 mmHg 49%
    03:00 +31°C° 0 mm 3 mps 738 mmHg 64%
    04:00 +31°C° 0 mm 3 mps 738 mmHg 67%
    05:00 +30°C° 0 mm 3 mps 739 mmHg 69%
    06:00 +30°C° 0 mm 3 mps 739 mmHg 71%
    07:00 +31°C° 0 mm 3 mps 739 mmHg 66%
    08:00 +34°C° 0 mm 3 mps 739 mmHg 61%
    09:00 +35°C° 0 mm 3 mps 740 mmHg 55%
    10:00 +37°C° 0 mm 2 mps 739 mmHg 45%
    11:00 +40°C° 0 mm 2 mps 739 mmHg 34%
    12:00 +43°C° 0 mm 1 mps 738 mmHg 23%
    13:00 +43°C° 0 mm 1 mps 737 mmHg 21%
    14:00 +41°C° 0 mm 0 mps 737 mmHg 18%
    15:00 +41°C° 0 mm 0 mps 736 mmHg 16%
    16:00 +40°C° 0 mm 0 mps 736 mmHg 17%
    17:00 +39°C° 0 mm 0 mps 736 mmHg 18%
    18:00 +37°C° 0 mm 0 mps 736 mmHg 19%
    19:00 +40°C° 0 mm 1 mps 736 mmHg 20%
    20:00 +39°C° 0 mm 1 mps 737 mmHg 22%
    21:00 +38°C° 0 mm 2 mps 738 mmHg 24%
    22:00 +37°C° 0 mm 3 mps 738 mmHg 38%
    23:00 +35°C° 0 mm 4 mps 737 mmHg 51%

    Tomorrow, 23 February, Saturday

    Time Temperature Precipitation Wind Pressure Humidity
    00:00 +33°C° 0 mm 5 mps 737 mmHg 65%
    01:00 +32°C° 0 mm 5 mps 737 mmHg 67%
    02:00 +32°C° 0 mm 5 mps 737 mmHg 68%
    03:00 +30°C° 0 mm 6 mps 737 mmHg 70%
    04:00 +30°C° 0 mm 5 mps 737 mmHg 70%
    05:00 +30°C° 0 mm 4 mps 737 mmHg 69%
    06:00 +30°C° 0 mm 3 mps 738 mmHg 69%
    07:00 +31°C° 0 mm 3 mps 738 mmHg 65%
    08:00 +33°C° 0 mm 3 mps 739 mmHg 61%
    09:00 +35°C° 0 mm 3 mps 739 mmHg 58%
    10:00 +36°C° 0 mm 3 mps 739 mmHg 51%
    11:00 +37°C° 0 mm 3 mps 738 mmHg 44%
    12:00 +39°C° 0 mm 3 mps 738 mmHg 38%
    13:00 +40°C° 0 mm 3 mps 737 mmHg 35%
    14:00 +40°C° 0 mm 3 mps 736 mmHg 32%
    15:00 +42°C° 0 mm 3 mps 735 mmHg 29%
    16:00 +40°C° 0 mm 3 mps 735 mmHg 33%
    17:00 +38°C° 0 mm 4 mps 735 mmHg 37%
    18:00 +37°C° 0 mm 5 mps 736 mmHg 41%
    19:00 +36°C° 0.4 mm 5 mps 736 mmHg 47%
    20:00 +34°C° 0.4 mm 5 mps 737 mmHg 53%
    21:00 +33°C° 0.4 mm 5 mps 738 mmHg 59%
    22:00 +32°C° 0 mm 5 mps 738 mmHg 62%
    23:00 +32°C° 0 mm 5 mps 737 mmHg 65%

    Day after tomorrow, 24 February, Sunday

    Time Temperature Precipitation Wind Pressure Humidity
    00:00 +30°C° 0 mm 5 mps 737 mmHg 68%
    01:00 +30°C° 0 mm 5 mps 737 mmHg 69%
    02:00 +29°C° 0 mm 5 mps 737 mmHg 71%
    03:00 +29°C° 0 mm 4 mps 736 mmHg 72%
    04:00 +29°C° 0 mm 4 mps 736 mmHg 72%
    05:00 +29°C° 0 mm 3 mps 737 mmHg 72%
    06:00 +29°C° 0 mm 3 mps 737 mmHg 73%
    07:00 +30°C° 0 mm 3 mps 738 mmHg 67%
    08:00 +31°C° 0 mm 3 mps 738 mmHg 61%
    09:00 +34°C° 0 mm 2 mps 739 mmHg 55%
    10:00 +36°C° 0 mm 2 mps 738 mmHg 48%
    11:00 +38°C° 0 mm 2 mps 738 mmHg 40%
    12:00 +40°C° 0 mm 2 mps 737 mmHg 33%
    13:00 +40°C° 0 mm 2 mps 736 mmHg 31%
    14:00 +40°C° 0 mm 1 mps 735 mmHg 29%
    15:00 +41°C° 0 mm 1 mps 734 mmHg 28%
    16:00 +40°C° 0 mm 1 mps 735 mmHg 29%
    17:00 +39°C° 0 mm 2 mps 735 mmHg 30%
    18:00 +39°C° 0 mm 2 mps 735 mmHg 31%
    19:00 +37°C° 0 mm 3 mps 736 mmHg 37%
    20:00 +36°C° 0 mm 4 mps 736 mmHg 44%
    21:00 +35°C° 0 mm 5 mps 737 mmHg 51%
    22:00 +34°C° 0 mm 5 mps 737 mmHg 54%
    23:00 +33°C° 0 mm 4 mps 737 mmHg 58%

    25 February, Monday

    Time Temperature Precipitation Wind Pressure Humidity
    00:00 +32°C° 0 mm 4 mps 737 mmHg 61%
    01:00 +32°C° 0.3 mm 4 mps 736 mmHg 63%
    02:00 +30°C° 0.3 mm 4 mps 736 mmHg 65%
    03:00 +30°C° 0.3 mm 3 mps 735 mmHg 67%
    04:00 +30°C° 0.5 mm 3 mps 736 mmHg 67%
    05:00 +29°C° 0.5 mm 2 mps 736 mmHg 68%
    06:00 +29°C° 0.5 mm 2 mps 736 mmHg 68%
    07:00 +31°C° 0 mm 2 mps 737 mmHg 62%
    08:00 +32°C° 0 mm 2 mps 737 mmHg 56%
    09:00 +35°C° 0 mm 2 mps 738 mmHg 50%
    10:00 +37°C° 0 mm 2 mps 737 mmHg 44%
    11:00 +39°C° 0 mm 2 mps 737 mmHg 37%
    12:00 +40°C° 0 mm 2 mps 736 mmHg 31%
    13:00 +40°C° 0 mm 1 mps 736 mmHg 30%
    14:00 +40°C° 0 mm 1 mps 735 mmHg 30%
    15:00 +40°C° 0 mm 1 mps 734 mmHg 29%
    16:00 +39°C° 0 mm 2 mps 735 mmHg 32%
    17:00 +38°C° 0 mm 3 mps 735 mmHg 36%
    18:00 +37°C° 0 mm 3 mps 736 mmHg 39%
    19:00 +36°C° 0.2 mm 3 mps 736 mmHg 41%
    20:00 +35°C° 0.2 mm 3 mps 737 mmHg 43%
    21:00 +35°C° 0.2 mm 2 mps 737 mmHg 46%
    22:00 +34°C° 0 mm 3 mps 737 mmHg 50%
    23:00 +33°C° 0 mm 3 mps 737 mmHg 55%

    26 February, Tuesday

    Time Temperature Precipitation Wind Pressure Humidity
    00:00 +31°C° 0 mm 3 mps 737 mmHg 60%
    01:00 +31°C° 0.1 mm 3 mps 737 mmHg 62%
    02:00 +30°C° 0.1 mm 3 mps 736 mmHg 64%
    03:00 +30°C° 0.1 mm 3 mps 736 mmHg 66%
    04:00 +30°C° 0.3 mm 2 mps 737 mmHg 67%
    05:00 +29°C° 0.3 mm 2 mps 737 mmHg 68%
    06:00 +29°C° 0.3 mm 1 mps 738 mmHg 69%
    07:00 +31°C° 0 mm 2 mps 738 mmHg 61%
    08:00 +32°C° 0 mm 2 mps 739 mmHg 54%
    09:00 +35°C° 0 mm 2 mps 739 mmHg 46%
    10:00 +37°C° 0 mm 2 mps 738 mmHg 41%
    11:00 +38°C° 0 mm 2 mps 738 mmHg 35%
    12:00 +40°C° 0 mm 1 mps 737 mmHg 29%
    13:00 +40°C° 0 mm 2 mps 737 mmHg 29%
    14:00 +40°C° 0 mm 2 mps 736 mmHg 28%
    15:00 +40°C° 0 mm 2 mps 735 mmHg 27%
    16:00 +39°C° 0 mm 2 mps 736 mmHg 30%
    17:00 +39°C° 0 mm 2 mps 736 mmHg 32%
    18:00 +38°C° 0 mm 2 mps 736 mmHg 35%
    19:00 +37°C° 0.8 mm 2 mps 737 mmHg 39%
    20:00 +36°C° 0.8 mm 2 mps 737 mmHg 44%
    21:00 +34°C° 0.8 mm 2 mps 738 mmHg 49%
    22:00 +32°C° 3.2 mm 2 mps 738 mmHg 56%
    23:00 +31°C° 3.2 mm 2 mps 738 mmHg 64%

    27 February, Wednesday

    Time Temperature Precipitation Wind Pressure Humidity
    00:00 +30°C° 3.2 mm 3 mps 738 mmHg 71%
    01:00 +30°C° 0.6 mm 2 mps 737 mmHg 70%
    02:00 +30°C° 0.6 mm 2 mps 737 mmHg 69%
    03:00 +30°C° 0.6 mm 1 mps 737 mmHg 68%
    04:00 +30°C° 0.6 mm 1 mps 738 mmHg 66%
    05:00 +29°C° 0.6 mm 2 mps 738 mmHg 64%
    06:00 +29°C° 0.6 mm 2 mps 738 mmHg 62%
    07:00 +30°C° 0 mm 2 mps 739 mmHg 50%
    08:00 +31°C° 0 mm 2 mps 739 mmHg 38%
    09:00 +32°C° 0 mm 2 mps 740 mmHg 27%
    10:00 +34°C° 0 mm 2 mps 739 mmHg 25%
    11:00 +36°C° 0 mm 2 mps 738 mmHg 23%
    12:00 +37°C° 0 mm 2 mps 738 mmHg 21%
    13:00 +38°C° 0 mm 2 mps 737 mmHg 21%
    14:00 +38°C° 0 mm 2 mps 737 mmHg 21%
    15:00 +39°C° 0 mm 2 mps 736 mmHg 21%
    16:00 +38°C° 0 mm 2 mps 736 mmHg 22%
    17:00 +37°C° 0 mm 2 mps 737 mmHg 23%
    18:00 +37°C° 0 mm 2 mps 737 mmHg 24%
    19:00 +36°C° 0 mm 2 mps 737 mmHg 24%
    20:00 +35°C° 0 mm 2 mps 738 mmHg 24%
    21:00 +34°C° 0 mm 2 mps 738 mmHg 24%
    22:00 +34°C° 0 mm 2 mps 738 mmHg 25%
    23:00 +32°C° 0 mm 2 mps 738 mmHg 26%
    Show more